This demonstration page uses our WeatherBlox Daily Observations layout. Learn more.

Left ArrowRight Arrow

Hourly Observations for September 3, 2017

Temp ( °F °C ) Dew Point ( °F °C ) Humidity (%) Winds ( mph kmh ) Pressure ( in mb ) Visibility ( mi km ) Precip ( " mm )
12:54 am 00:54 Clear 66 18.9 64 17.8 93 93 N 5 7 30.04 1017 8 12.87472 0 0
1:54 am 01:54 Clear with Mist and Fog 65 18.3 64 17.8 97 97 Calm 30.03 1017 6 9.65604 0 0
2:54 am 02:54 Clear 65 18.3 63 17.2 93 93 Calm 30.03 1017 7 11.26538 0 0
3:54 am 03:54 Clear with Mist and Fog 63 17.2 62 16.7 97 97 Calm 30.03 1017 1.25 2.011675 0 0
4:06 am 04:06 Mostly Cloudy with Fog 62 16.7 62 16.7 100 100 Calm 30.06 1018 0.25 0.402335 0 0
4:15 am 04:15 Mostly Clear with Mist and Fog 63 17.2 62 16.7 97 97 Calm 30.03 1017 1.25 2.011675 0 0
4:17 am 04:17 Mostly Clear with Mist and Fog 63 17.2 62 16.7 97 97 Calm 30.03 1017 4 6.43736 0 0
4:54 am 04:54 Clear with Mist and Fog 64 17.8 63 17.2 96 96 Calm 30.04 1017 4 6.43736 0 0
5:08 am 05:08 Clear with Mist and Fog 63 17.2 62 16.7 97 97 Calm 30.09 1019 1.5 2.41401 0 0
5:19 am 05:19 Clear with Mist and Fog 61 16.1 59 15 93 93 Calm 30.06 1018 3 4.82802 0 0
5:47 am 05:47 Mostly Cloudy with Mist and Fog 61 16.1 60 15.6 97 97 SSE 3 6 30.06 1018 1 1.60934 0 0
5:51 am 05:51 Mostly Cloudy with Fog 61 16 61 16 100 100 S 3 6 30.06 1018 0.25 0.402335 0 0
5:56 am 05:56 Mostly Cloudy with Mist and Fog 62 16.7 61 16.1 96 96 S 3 6 30.06 1018 4 6.43736 0 0
6:27 am 06:27 Partly Cloudy with Mist and Fog 63 17.2 62 16.7 97 97 Calm 30.03 1017 1.75 2.816345 0 0
6:42 am 06:42 Mostly Clear with Mist and Fog 62 16.7 61 16.1 96 96 SSE 3 6 30.06 1018 3 4.82802 0 0
6:54 am 06:54 Clear with Mist and Fog 62 16.7 61 16.1 96 96 SSE 3 6 30.04 1017 4 6.43736 0 0
7:30 am 07:30 Sunny with Mist and Fog 61 16.1 61 16.1 100 100 S 5 7 30.09 1019 2.5 4.02335 0 0
7:32 am 07:32 Sunny with Mist and Fog 61 16.1 61 16.1 100 100 S 5 7 30.09 1019 4 6.43736 0 0
7:54 am 07:54 Sunny with Mist and Fog 64 17.8 62 16.7 93 93 Calm 30.05 1018 4 6.43736 0 0
8:54 am 08:54 Sunny with Mist and Fog 68 20 66 18.9 93 93 Calm 30.06 1018 5 8.0467 0 0
9:54 am 09:54 Sunny 74 23.3 68 20 82 82 S 7 11 30.05 1018 8 12.87472 0 0
10:54 am 10:54 Sunny 80 26.7 67 19.4 64 64 S 8 13 30.04 1017 10 16.0934 0 0
11:54 am 11:54 Sunny 83 28.3 67 19.4 59 59 SSW 12 19 30.02 1017 10 16.0934 0 0
12:54 pm 12:54 Sunny 85 29.4 68 20 57 57 S 15 24 29.99 1016 10 16.0934 0 0
1:54 pm 13:54 Sunny 87 30.6 67 19.4 51 51 S 17 28 29.97 1015 10 16.0934 0 0
2:54 pm 14:54 Sunny 89 31.7 66 18.9 47 47 S 13 20 29.94 1014 10 16.0934 0 0
3:54 pm 15:54 Sunny 90 32.2 65 18.3 44 44 S 14 22 29.92 1013 10 16.0934 0 0
4:54 pm 16:54 Sunny 91 32.8 65 18.3 42 42 S 12 19 29.88 1012 9 14.48406 0 0
5:54 pm 17:54 Sunny 90 32.2 64 17.8 42 42 S 10 17 29.88 1012 9 14.48406 0 0
6:54 pm 18:54 Sunny 85 29.4 67 19.4 55 55 S 10 17 29.86 1011 9 14.48406 0 0
7:54 pm 19:54 Sunny 79 26.1 66 18.9 65 65 S 9 15 29.85 1011 9 14.48406 0 0
8:54 pm 20:54 Clear 76 24.4 65 18.3 69 69 S 9 15 29.85 1011 10 16.0934 0 0
9:54 pm 21:54 Clear 77 25 64 17.8 64 64 S 12 19 29.84 1010 10 16.0934 0 0
10:54 pm 22:54 Clear 78 25.6 66 18.9 67 67 S 10 17 29.84 1010 10 16.0934 0 0
11:54 pm 23:54 Clear 78 25.6 65 18.3 64 64 SSW 12 19 29.83 1010 10 16.0934 0 0

Powered by AerisWeather